This is the latest recevied weather packets stored in our database for station/object KC3AWA. If no packets are shown the sender has not sent any weather packets the latest 10 day(s).
| Time | Temp. | Humidity | Pressure | Rain* | Wind** | Luminosity | Snow |
|---|---|---|---|---|---|---|---|
| 1777579315 | 8.33° C | 69% | 1013.8 hPa | 0 mm | - | 177 W/m² | - |
| 1777579011 | 7.78° C | 73% | 1013.9 hPa | 0 mm | - | 250 W/m² | - |
| 1777578706 | 8.33° C | 71% | 1013.8 hPa | 0 mm | - | 234 W/m² | - |
| 1777578406 | 8.33° C | 71% | 1013.9 hPa | 0 mm | - | 160 W/m² | - |
| 1777578102 | 8.33° C | 69% | 1013.8 hPa | 0 mm | - | 148 W/m² | - |
| 1777577798 | 8.33° C | 69% | 1013.8 hPa | 0 mm | - | 192 W/m² | - |
| 1777577494 | 8.33° C | 72% | 1014.1 hPa | 0 mm | - | 219 W/m² | - |
| 1777577191 | 8.33° C | 71% | 1013.9 hPa | 0 mm | - | 214 W/m² | - |
| 1777576887 | 7.78° C | 72% | 1013.8 hPa | 0 mm | - | 203 W/m² | - |
| 1777576587 | 7.78° C | 72% | 1014 hPa | 0 mm | - | 192 W/m² | - |
| 1777576282 | 7.78° C | 71% | 1013.8 hPa | 0 mm | - | 131 W/m² | - |
| 1777575980 | 7.78° C | 75% | 1013.9 hPa | 0 mm | - | 91 W/m² | - |
| 1777575675 | 7.78° C | 73% | 1013.8 hPa | 0 mm | - | 94 W/m² | - |
| 1777575371 | 7.78° C | 75% | 1013.8 hPa | 0 mm | - | 107 W/m² | - |
| 1777575068 | 7.78° C | 72% | 1013.9 hPa | 0 mm | - | 48 W/m² | - |
| 1777574763 | 7.78° C | 70% | 1013.8 hPa | 0 mm | - | 56 W/m² | - |
| 1777574462 | 8.33° C | 71% | 1013.8 hPa | 0 mm | - | 65 W/m² | - |
| 1777574162 | 8.89° C | 72% | 1013.7 hPa | 0 mm | - | 153 W/m² | - |
| 1777573857 | 8.33° C | 72% | 1013.8 hPa | 0 mm | - | 262 W/m² | - |
| 1777573552 | 8.33° C | 73% | 1013.9 hPa | 0 mm | - | 261 W/m² | - |
| 1777573249 | 7.78° C | 75% | 1013.9 hPa | 0 mm | - | 298 W/m² | - |
| 1777572945 | 7.22° C | 77% | 1013.6 hPa | 0 mm | - | 277 W/m² | - |
| 1777572641 | 7.22° C | 75% | 1014 hPa | 0 mm | - | 176 W/m² | - |
| 1777572341 | 7.22° C | 74% | 1013.6 hPa | 0 mm | - | 126 W/m² | - |
| 1777572038 | 7.22° C | 76% | 1013.8 hPa | 0 mm | - | 104 W/m² | - |
* Rain latest hour (hover to see other rain measurements)
** Current wind speed in m/s (hover to see current wind gust speed)